Location: Jackson
(42.2460°N, 84.4010°W)
Time: 18:26:00
(UTC-04:00)

Courier 1B Rocket - Pass Details

Date: 12 February 2026
Orbit: 920 x 1201 km, 28.2° (Epoch: 12 March)

Event Time Altitude Azimuth Distance (km) Brightness Sun altitude
Rises 22:19:15 0° 231° (SW) 3,651 - -46.2°
Reaches altitude 10° 22:22:27 10° 216° (SW) 2,748 - -46.7°
Maximum altitude 22:27:22 22° 168° (SSE) 2,084 - -47.5°
Drops below altitude 10° 22:32:32 10° 121° (ESE) 2,904 - -48.3°
Sets 22:36:02 0° 107° (ESE) 3,915 - -48.8°
